Weather History for Manteo, NC

Change the Weather History Date:

Sunday, May 19, 2013

  Actual Average Record
Temperature  
Mean Temperature 74 °F -  
Max Temperature 79 °F 72 °F 91 °F (2001)
Min Temperature 70 °F 59 °F 46 °F (2002)
Cooling Degree Days 10    
Growing Degree Days 24 (Base 50)    
Moisture  
Dew Point 68 °F    
Average Humidity 83    
Maximum Humidity 92    
Minimum Humidity 72    
Precipitation  
Precipitation 0.02 in - - ()
Sea Level Pressure  
Sea Level Pressure 30.16 in    
Wind  
Wind Speed 10 mph (South)    
Max Wind Speed 15 mph    
Max Gust Speed 21 mph    
Visibility 10 miles    
Events Rain    
Averages and records for this station are not official NWS values.
T = Trace of Precipitation, MM = Missing Value Source: NWS Daily Summary

Daily Weather History Graph

Daily Weather History Graph

Search for Another Location

Airport:

Trip Planner

Search our weather history database for the weather conditions in past years. The results will help you decide how hot, cold, wet, or windy it might be!

Date:

Astronomy

May. 19, 2013 Rise Set
Actual Time 5:54 AM EDT 8:04 PM EDT
Civil Twilight 5:25 AM EDT 8:33 PM EDT
Nautical Twilight 4:50 AM EDT 9:09 PM EDT
Astronomical Twilight 4:11 AM EDT 9:47 PM EDT
Moon 2:17 PM EDT (5/19) 2:04 AM EDT (5/19)
Length of Visible Light 15h 08m
Length of Day
14h 10m
Waxing Gibbous, 65% of the Moon is Illuminated
May 19
Waxing Gibbous
May 25
Full
May 31
Last Quarter
Jun 8
New
Jun 16
First Quarter

Hourly Weather History & Observations

Time (EDT) Temp. Dew Point Humidity Pressure Visibility Wind Dir Wind Speed Gust Speed Precip Events Conditions
12:15 AM 71.6 °F 66.7 °F 85% 30.17 in 10.0 mi SSE 9.2 mph - N/A   Mostly Cloudy
12:35 AM 71.2 °F 67.3 °F 87% 30.17 in 10.0 mi SSE 6.9 mph - N/A   Mostly Cloudy
12:55 AM 71.1 °F 67.3 °F 88% 30.17 in 10.0 mi SSE 6.9 mph - N/A   Scattered Clouds
1:15 AM 71.1 °F 67.1 °F 87% 30.17 in 10.0 mi SSE 8.1 mph - N/A   Mostly Cloudy
1:35 AM 70.7 °F 66.7 °F 87% 30.17 in 10.0 mi SSE 8.1 mph - N/A   Mostly Cloudy
1:55 AM 70.5 °F 67.1 °F 89% 30.16 in 10.0 mi SSE 8.1 mph - N/A   Scattered Clouds
2:15 AM 70.7 °F 67.3 °F 89% 30.16 in 10.0 mi South 9.2 mph - N/A   Scattered Clouds
2:35 AM 70.7 °F 67.5 °F 89% 30.15 in 10.0 mi South 9.2 mph - N/A   Mostly Cloudy
2:55 AM 70.9 °F 67.6 °F 89% 30.15 in 10.0 mi South 8.1 mph - N/A   Overcast
3:15 AM 71.2 °F 68.4 °F 91% 30.15 in 10.0 mi South 8.1 mph - N/A   Overcast
3:35 AM 71.6 °F 68.4 °F 89% 30.15 in 10.0 mi South 8.1 mph - N/A   Overcast
3:55 AM 71.8 °F 68.4 °F 89% 30.15 in 10.0 mi South 10.4 mph - N/A   Overcast
4:15 AM 71.6 °F 68.2 °F 89% 30.15 in 10.0 mi South 9.2 mph - N/A   Overcast
4:35 AM 71.8 °F 68.4 °F 89% 30.15 in 10.0 mi South 6.9 mph - N/A   Overcast
4:55 AM 71.6 °F 68.9 °F 91% 30.15 in 7.0 mi South 8.1 mph - 0.02 in Rain Heavy Rain
5:15 AM 71.1 °F 68.7 °F 92% 30.15 in 10.0 mi South 10.4 mph - N/A   Overcast
5:35 AM 71.6 °F 68.2 °F 89% 30.16 in 10.0 mi SSW 12.7 mph - N/A   Overcast
5:55 AM 71.6 °F 68.2 °F 89% 30.16 in 10.0 mi South 12.7 mph - N/A   Overcast
6:15 AM 71.6 °F 68.0 °F 88% 30.17 in 10.0 mi South 13.8 mph - N/A   Mostly Cloudy
6:35 AM 71.8 °F 68.0 °F 88% 30.17 in 10.0 mi South 11.5 mph - N/A   Overcast
6:55 AM 71.1 °F 68.0 °F 90% 30.17 in 10.0 mi South 8.1 mph - N/A   Mostly Cloudy
7:15 AM 71.6 °F 68.5 °F 90% 30.18 in 10.0 mi South 8.1 mph - N/A   Overcast
7:35 AM 72.5 °F 68.9 °F 88% 30.18 in 10.0 mi South 13.8 mph - N/A   Overcast
8:15 AM 72.5 °F 69.1 °F 89% 30.19 in 10.0 mi South 11.5 mph - N/A   Mostly Cloudy
8:35 AM 74.3 °F 69.1 °F 84% 30.19 in 10.0 mi South 10.4 mph - N/A   Scattered Clouds
8:55 AM 75.2 °F 69.4 °F 82% 30.19 in 10.0 mi South 12.7 mph - N/A   Scattered Clouds
9:15 AM 76.3 °F 69.4 °F 79% 30.19 in 10.0 mi South 11.5 mph - N/A   Scattered Clouds
9:35 AM 74.5 °F 68.7 °F 82% 30.19 in 10.0 mi South 9.2 mph - N/A   Mostly Cloudy
9:55 AM 74.3 °F 68.2 °F 81% 30.19 in 10.0 mi South 11.5 mph - N/A Rain Light Rain
10:15 AM 75.0 °F 68.0 °F 79% 30.19 in 10.0 mi South 12.7 mph 20.7 mph N/A   Mostly Cloudy
10:55 AM 77.0 °F 68.4 °F 75% 30.20 in 10.0 mi South 11.5 mph - N/A   Scattered Clouds
11:15 AM 77.4 °F 68.4 °F 74% 30.20 in 10.0 mi South 10.4 mph - N/A   Scattered Clouds
11:35 AM 77.0 °F 67.5 °F 72% 30.20 in 10.0 mi South 13.8 mph - N/A   Mostly Cloudy
11:55 AM 75.2 °F 66.7 °F 75% 30.20 in 10.0 mi South 9.2 mph - N/A   Overcast
12:15 PM 75.4 °F 66.9 °F 75% 30.19 in 10.0 mi South 10.4 mph - N/A   Overcast
12:35 PM 75.9 °F 68.5 °F 78% 30.19 in 10.0 mi South 11.5 mph - N/A   Mostly Cloudy
12:55 PM 79.5 °F 70.2 °F 73% 30.18 in 10.0 mi South 11.5 mph 18.4 mph N/A   Scattered Clouds
1:15 PM 77.0 °F 68.4 °F 75% 30.18 in 10.0 mi South 13.8 mph - N/A   Scattered Clouds
1:35 PM 76.8 °F 68.7 °F 76% 30.17 in 10.0 mi South 9.2 mph - N/A   Scattered Clouds
1:55 PM 76.1 °F 68.5 °F 77% 30.17 in 10.0 mi South 9.2 mph - N/A Rain Light Rain
2:15 PM 75.7 °F 67.1 °F 74% 30.16 in 10.0 mi South 10.4 mph - N/A   Mostly Cloudy
2:35 PM 74.7 °F 67.6 °F 79% 30.16 in 10.0 mi South 12.7 mph - N/A Rain Rain
3:15 PM 73.0 °F 68.4 °F 85% 30.15 in 10.0 mi Calm Calm - N/A Rain Rain
3:35 PM 75.6 °F 69.4 °F 81% 30.14 in 10.0 mi South 9.2 mph - N/A   Scattered Clouds
3:55 PM 76.1 °F 69.3 °F 79% 30.13 in 10.0 mi South 11.5 mph - N/A   Clear
4:15 PM 76.1 °F 69.3 °F 79% 30.13 in 10.0 mi South 12.7 mph 18.4 mph N/A   Clear
4:35 PM 76.3 °F 69.3 °F 79% 30.13 in 10.0 mi South 12.7 mph - N/A   Clear
4:55 PM 76.1 °F 68.7 °F 78% 30.13 in 10.0 mi South 11.5 mph - N/A   Clear
5:15 PM 76.1 °F 68.5 °F 77% 30.13 in 10.0 mi South 11.5 mph 17.3 mph N/A   Clear
5:35 PM 76.1 °F 68.2 °F 76% 30.13 in 10.0 mi South 10.4 mph - N/A   Clear
5:55 PM 75.6 °F 68.4 °F 78% 30.14 in 10.0 mi South 10.4 mph - N/A   Clear
6:15 PM 75.6 °F 68.7 °F 79% 30.14 in 10.0 mi South 12.7 mph - N/A   Clear
6:35 PM 75.6 °F 69.1 °F 80% 30.13 in 10.0 mi South 10.4 mph - N/A   Clear
6:55 PM 75.6 °F 68.9 °F 80% 30.13 in 10.0 mi South 11.5 mph 16.1 mph N/A   Clear
7:15 PM 75.2 °F 68.4 °F 79% 30.13 in 10.0 mi South 12.7 mph - N/A   Clear
7:35 PM 74.8 °F 68.5 °F 81% 30.13 in 10.0 mi South 10.4 mph - N/A   Clear
7:55 PM 74.7 °F 68.5 °F 81% 30.14 in 10.0 mi South 10.4 mph - N/A   Clear
8:15 PM 74.7 °F 68.7 °F 82% 30.15 in 10.0 mi South 13.8 mph - N/A   Clear
8:35 PM 74.3 °F 68.4 °F 82% 30.15 in 10.0 mi South 11.5 mph - N/A   Clear
8:55 PM 74.3 °F 68.4 °F 82% 30.16 in 10.0 mi South 9.2 mph - N/A   Clear
9:15 PM 73.8 °F 68.2 °F 83% 30.16 in 10.0 mi South 8.1 mph - N/A   Clear
9:35 PM 73.8 °F 68.4 °F 83% 30.17 in 10.0 mi South 10.4 mph - N/A   Clear
9:55 PM 74.3 °F 68.5 °F 82% 30.17 in 10.0 mi South 11.5 mph - N/A   Scattered Clouds
10:15 PM 73.8 °F 68.4 °F 83% 30.17 in 10.0 mi South 15.0 mph - N/A   Scattered Clouds
10:35 PM 73.8 °F 68.4 °F 83% 30.17 in 10.0 mi South 11.5 mph - N/A   Clear
10:55 PM 73.8 °F 68.2 °F 83% 30.18 in 10.0 mi SSW 13.8 mph - N/A   Clear
11:15 PM 73.6 °F 68.2 °F 83% 30.17 in 10.0 mi SSW 15.0 mph - N/A   Clear
11:35 PM 73.4 °F 68.2 °F 84% 30.17 in 10.0 mi SSW 13.8 mph - N/A   Clear